Dubuque, IA

1:33 PM CDT on March 23, 2017 (GMT -0500)
Dubuque Regional

Weather History for KDBQ - May, 2013

Change the Weather History Date:

Thursday, May 9, 2013

  Actual Average Record
Temperature  
Mean Temperature 58 °F 56 °F  
Max Temperature 64 °F 67 °F 94 °F (1934)
Min Temperature 51 °F 46 °F 28 °F (1966)
Degree Days  
Heating Degree Days 7 9  
Month to date heating degree days 82 91  
Since 1 July heating degree days 7122 6912  
Cooling Degree Days 0 1  
Month to date cooling degree days 0 1  
Year to date cooling degree days 8 6  
Growing Degree Days 8 (Base 50)    
Moisture  
Dew Point 58 °F    
Average Humidity 89    
Maximum Humidity 100    
Minimum Humidity 78    
Precipitation  
Precipitation 1.11 in 0.14 in 2.14 in (1948)
Month to date precipitation 3.33 1.20  
Year to date precipitation 17.86 9.88  
Snow  
Snow 0.00 in 0.00 in - ()
Month to date snowfall 0.0 0.1  
Since 1 July snowfall 54.5 42.0  
Snow Depth 0.00 in    
Sea Level Pressure  
Sea Level Pressure 29.87 in    
Wind  
Wind Speed 9 mph (ENE)    
Max Wind Speed 18 mph    
Max Gust Speed 24 mph    
Visibility 5 miles    
Events Rain    
T = Trace of Precipitation, MM = Missing Value Source: NWS Daily Summary

Daily Weather History Graph

Daily Weather History Graph

Search for Another Location

Airport or City:

Trip Planner

Search our weather history database for the weather conditions in past years. The results will help you decide how hot, cold, wet, or windy it might be!

Date:

Astronomy

May. 09, 2013 Rise Set
Actual Time 5:47 AM CDT 8:11 PM CDT
Civil Twilight 5:16 AM CDT 8:43 PM CDT
Nautical Twilight 4:36 AM CDT 9:22 PM CDT
Astronomical Twilight 3:53 AM CDT 10:06 PM CDT
Moon 5:32 AM CDT (5/9) 8:06 PM CDT (5/9)
Length of Visible Light 15h 27m
Length of Day
14h 24m
Waning Crescent, 0% of the Moon is Illuminated
May 9
Waning Crescent
May 9
New
May 17
First Quarter
May 24
Full
May 31
Last Quarter

Hourly Weather History & Observations

Time (CDT) Temp. Dew Point Humidity Pressure Visibility Wind Dir Wind Speed Gust Speed Precip Events Conditions
12:53 AM 61.0 °F 55.9 °F 83% 29.96 in 10.0 mi NNE 4.6 mph - N/A   Overcast
1:53 AM 62.1 °F 55.9 °F 80% 29.95 in 10.0 mi Calm Calm - N/A   Overcast
2:53 AM 60.1 °F 57.0 °F 90% 29.95 in 6.0 mi ENE 8.1 mph - 0.08 in Rain Light Rain
3:53 AM 59.0 °F 55.9 °F 90% 29.94 in 10.0 mi ENE 5.8 mph - 0.00 in   Overcast
4:53 AM 59.0 °F 55.9 °F 90% 29.92 in 10.0 mi East 8.1 mph - N/A   Mostly Cloudy
5:53 AM 60.1 °F 55.0 °F 83% 29.93 in 10.0 mi East 9.2 mph - N/A   Overcast
6:53 AM 59.0 °F 57.0 °F 93% 29.95 in 9.0 mi SSE 6.9 mph - 0.00 in   Overcast
7:53 AM 59.0 °F 55.9 °F 90% 29.94 in 10.0 mi SE 8.1 mph - N/A   Overcast
8:53 AM 60.1 °F 57.0 °F 90% 29.93 in 9.0 mi ESE 6.9 mph - 0.01 in Rain Light Rain
9:53 AM 61.0 °F 57.0 °F 87% 29.93 in 10.0 mi East 5.8 mph - 0.00 in   Overcast
10:53 AM 61.0 °F 57.0 °F 87% 29.94 in 9.0 mi SE 5.8 mph - N/A   Overcast
11:53 AM 60.8 °F 57.2 °F 88% 29.93 in 6.0 mi SE 11.5 mph - N/A Rain Light Rain
12:53 PM 62.1 °F 60.1 °F 93% 29.91 in 6.0 mi ESE 6.9 mph - 0.01 in Rain Light Rain
1:53 PM 63.0 °F 61.0 °F 93% 29.90 in 5.0 mi NNE 3.5 mph - 0.01 in Rain Light Rain
2:53 PM 64.4 °F 60.8 °F 88% 29.87 in 6.0 mi NE 6.9 mph - N/A   Overcast
3:53 PM 63.0 °F 62.1 °F 97% 29.85 in 5.0 mi NNE 6.9 mph - 0.00 in   Overcast
4:18 PM 64.4 °F 62.6 °F 94% 29.84 in 6.0 mi NE 9.2 mph - N/A   Overcast
4:53 PM 63.0 °F 60.1 °F 90% 29.84 in 6.0 mi East 6.9 mph - N/A   Overcast
5:16 PM 62.6 °F 60.8 °F 94% 29.83 in 6.0 mi East 5.8 mph - 0.01 in Rain Light Rain
5:26 PM 60.8 °F 60.8 °F 100% 29.83 in 2.5 mi ENE 3.5 mph - 0.03 in Rain Rain
5:35 PM 60.8 °F 60.8 °F 100% 29.83 in 0.8 mi ENE 4.6 mph - 0.16 in Rain Heavy Rain
5:53 PM 61.0 °F 61.0 °F 100% 29.82 in 1.5 mi ENE 5.8 mph - 0.33 in Rain Rain
6:00 PM 60.8 °F 60.8 °F 100% 29.82 in 3.0 mi ENE 6.9 mph - 0.01 in Rain Light Rain
6:09 PM 60.8 °F 60.8 °F 100% 29.82 in 3.0 mi ENE 9.2 mph - 0.01 in Rain Light Rain
6:25 PM 60.8 °F 60.8 °F 100% 29.82 in 2.5 mi NE 5.8 mph - 0.01 in   Overcast
6:37 PM 60.8 °F 60.8 °F 100% 29.82 in 3.0 mi ENE 8.1 mph - 0.02 in Rain Light Rain
6:53 PM 59.0 °F 59.0 °F 100% 29.82 in 2.5 mi ENE 12.7 mph - 0.03 in Rain Rain
7:33 PM 57.2 °F 57.2 °F 100% 29.83 in 2.5 mi ENE 10.4 mph - 0.04 in Rain Rain
7:53 PM 57.9 °F 57.9 °F 100% 29.83 in 1.8 mi NE 11.5 mph - 0.10 in Rain Rain
8:03 PM 57.2 °F 57.2 °F 100% 29.83 in 2.0 mi NE 10.4 mph - 0.02 in Rain Rain
8:32 PM 57.2 °F 57.2 °F 100% 29.83 in 1.5 mi NNE 9.2 mph - 0.21 in Rain Heavy Rain
8:53 PM 57.0 °F 57.0 °F 100% 29.83 in 1.5 mi NE 9.2 mph - 0.35 in Rain Rain
9:11 PM 57.2 °F 57.2 °F 100% 29.82 in 2.0 mi NE 9.2 mph - 0.03 in Rain Light Rain
9:42 PM 57.2 °F 57.2 °F 100% 29.82 in 1.5 mi NNE 11.5 mph - 0.08 in Rain Rain
9:53 PM 57.0 °F 57.0 °F 100% 29.82 in 1.0 mi NE 10.4 mph - 0.10 in Rain Rain
10:26 PM 57.2 °F 57.2 °F 100% 29.82 in 2.0 mi NNE 11.5 mph - 0.03 in Rain Light Rain
10:53 PM 57.0 °F 57.0 °F 100% 29.83 in 2.5 mi NNE 11.5 mph 20.7 mph 0.03 in   Overcast
11:04 PM 55.4 °F 55.4 °F 100% 29.83 in 4.0 mi NE 15.0 mph 23.0 mph N/A   Overcast
11:35 PM 53.6 °F 53.6 °F 100% 29.84 in 7.0 mi NNE 13.8 mph 24.2 mph 0.00 in Rain Light Rain
11:53 PM 53.6 °F 51.8 °F 94% 29.84 in 7.0 mi NNE 13.8 mph 21.9 mph N/A   Overcast